Wind_Speed
26 26 27 28 29 28 26 25 25 25 25 24 23 23 21 19 18 17 16 14 13 11 10 8 7 7 6 6 6 6 5 5 4 4 3 3 3 3 3 3 3 3 3 3 3 3 3 3 3 3 2 2 2 2 3 3 3 3 3 3 3 3 4 5 6 6 6 7 8 8 9 10 10 11 11 11 11 10 10 11 11 11 12 13 14
26 24 25 27 27 25 25 25 25 25 25 23 22 21 19 18 16 15 14 12 11 9 8 8 8 7 7 7 7 7 6 6 5 5 4 5 6 6 6 6 7 7 6 5 5 5 4 4 4 4 4 3 3 3 3 3 4 4 4 3 3 4 5 6 6 6 7 8 8 8 9 10 10 10 10 10 10 10 10 10 11 11 12 14 14
29 26 24 25 25 23 23 24 24 24 24 22 21 20 18 17 16 14 13 11 10 8 8 8 8 8 8 8 8 7 7 6 6 6 6 7 7 7 8 8 8 8 8 7 7 6 6 6 6 6 5 5 5 5 5 5 5 5 5 5 5 6 6 6 7 7 8 9 9 9 9 9 9 9 9 10 11 11 10 10 10 11 13 13 14
30 28 25 25 25 24 23 23 23 24 23 22 20 19 18 16 15 13 12 10 9 8 8 8 8 7 8 8 7 7 7 7 7 6 7 7 8 8 8 8 9 9 9 8 8 8 7 7 6 6 5 5 6 7 6 6 6 6 7 6 6 7 8 7 8 9 9 10 10 10 9 9 9 9 9 10 12 12 11 10 10 11 12 13 13
27 27 26 26 27 26 25 24 23 24 23 21 19 18 16 15 13 12 10 8 8 8 8 8 7 7 7 7 7 8 7 7 7 7 7 8 8 8 8 9 9 9 9 9 9 8 7 7 6 6 6 6 6 7 7 7 7 8 8 8 7 8 9 9 9 10 10 10 10 10 9 9 8 9 10 11 13 13 11 10 11 12 12 12 12
24 23 23 25 25 25 25 23 22 23 21 19 17 16 15 13 12 10 9 7 7 7 7 7 6 6 6 7 7 7 7 7 7 7 7 8 8 8 8 9 9 9 9 9 9 8 7 7 6 6 6 6 7 8 8 8 9 9 9 9 8 9 10 10 10 11 11 11 10 10 10 9 9 11 12 12 14 13 12 11 11 12 12 12 12
23 22 21 21 21 22 22 20 20 20 18 17 15 14 13 12 11 9 7 6 6 7 7 6 5 5 6 6 6 7 6 6 7 7 8 8 7 7 8 9 9 9 9 9 8 8 7 7 6 5 7 8 8 8 8 9 11 11 11 9 10 10 10 10 10 11 11 11 11 11 11 10 11 13 14 14 14 13 12 11 12 13 12 12 12
24 22 20 19 18 19 19 19 18 17 16 15 13 13 12 11 10 8 6 5 6 6 6 6 5 5 6 6 6 6 6 6 7 8 8 8 7 8 8 9 9 9 9 9 9 8 8 8 6 6 7 8 8 9 9 10 11 12 13 11 11 12 11 11 11 12 12 11 11 11 11 11 13 15 14 14 14 13 13 13 14 14 14 13 13
24 23 21 19 18 18 19 18 18 16 15 13 12 12 11 10 8 7 5 5 5 6 6 6 5 5 5 5 6 6 6 6 7 8 8 8 7 8 8 9 10 9 9 9 9 9 9 9 8 8 9 9 9 10 10 10 11 12 13 12 11 12 12 13 12 12 12 11 11 12 11 11 14 15 14 14 14 15 15 15 15 14 14 14 13
23 23 21 20 19 18 18 18 17 16 14 13 12 11 11 9 7 6 5 5 6 6 6 5 5 5 5 6 6 6 6 6 7 8 8 8 8 8 9 9 9 9 9 9 10 10 10 10 10 11 11 11 11 11 11 11 11 12 13 13 12 13 14 14 13 12 12 12 11 12 12 12 14 15 15 15 15 15 15 14 14 14 14 14 13
22 21 20 20 19 18 17 17 17 15 14 12 11 11 9 8 6 5 4 5 6 6 5 6 6 6 6 6 6 6 6 6 7 8 9 9 9 9 9 9 9 9 9 10 10 10 10 11 11 13 14 13 12 12 12 12 12 12 13 14 14 15 15 15 14 13 12 12 12 13 13 13 14 16 16 15 15 15 15 14 13 13 13 13 13
21 21 20 19 18 18 17 17 17 15 14 12 11 10 8 7 5 4 5 6 6 5 5 6 6 6 6 6 6 6 7 7 7 8 9 9 8 8 9 9 9 9 9 10 11 10 9 10 11 12 15 15 13 13 14 14 14 13 13 15 16 16 16 15 14 13 13 13 13 13 13 13 14 15 15 15 15 15 14 14 13 13 13 13 13
20 20 20 18 18 18 17 17 16 15 13 12 11 9 7 6 5 5 6 7 5 5 6 6 6 6 6 6 6 6 7 7 7 8 8 8 8 8 8 9 9 8 9 10 11 10 10 11 12 13 14 14 14 14 14 14 14 14 15 15 16 16 16 15 14 14 13 13 13 13 13 13 14 14 14 14 14 14 14 14 14 13 12 13 13
19 19 19 18 18 17 17 16 15 14 12 11 9 8 6 5 6 7 7 6 5 6 6 6 6 6 6 6 6 7 8 8 8 8 7 8 8 8 8 8 9 8 9 10 10 11 12 12 13 14 14 14 15 15 15 15 15 15 16 15 15 16 15 15 14 14 13 13 13 13 13 13 13 13 13 13 13 13 13 14 14 13 13 13 13
18 18 18 18 17 17 16 15 14 12 11 10 8 7 6 7 8 8 6 5 6 7 6 6 6 6 6 6 7 7 8 8 8 8 7 7 8 9 8 9 9 8 8 9 10 11 13 13 14 15 15 16 16 16 16 16 16 16 16 15 15 15 15 15 15 14 13 13 13 13 13 12 12 12 12 12 12 13 13 13 13 13 13 13 13
18 18 18 17 17 16 15 15 14 12 10 9 8 8 8 8 8 7 6 6 6 7 7 6 6 6 7 7 7 7 7 8 7 7 7 8 9 9 9 10 10 9 9 9 10 12 13 13 14 15 15 15 16 17 17 16 17 16 16 16 16 16 16 15 14 13 12 12 13 13 12 11 11 12 12 12 12 12 12 13 13 13 13 13 14
19 18 17 17 16 15 14 14 13 11 11 10 10 10 10 8 7 7 6 6 7 7 7 7 7 8 8 8 7 7 7 7 7 7 7 8 10 10 10 10 10 10 9 10 11 13 14 14 14 14 14 15 16 17 16 16 16 16 16 17 17 17 16 15 14 13 12 12 13 13 12 12 12 12 11 11 11 11 12 12 13 13 12 13 14
18 17 16 16 15 14 13 13 12 12 12 11 11 11 10 8 7 8 8 7 7 7 7 8 8 8 8 8 7 7 7 7 7 7 8 10 11 10 11 11 10 11 11 11 13 13 14 15 15 14 13 14 16 16 16 16 16 16 16 16 17 16 15 15 14 13 12 12 13 13 12 11 11 11 11 11 11 11 12 12 12 12 12 13 14
17 16 16 15 14 13 13 12 12 13 13 12 11 11 9 9 8 8 8 8 8 8 8 8 8 9 9 8 7 8 7 8 8 8 10 11 11 11 11 11 11 12 12 12 14 14 14 14 14 15 13 14 15 15 15 15 15 15 14 14 15 15 14 14 13 13 13 13 13 13 12 11 10 10 10 11 11 11 11 11 12 12 12 12 13
16 16 15 14 14 13 13 13 14 14 13 11 10 10 9 8 8 9 8 8 8 8 8 8 8 9 9 9 9 10 10 10 10 11 12 12 12 12 12 12 12 12 12 13 14 14 14 13 13 13 13 14 14 14 14 14 14 13 13 13 13 13 12 12 12 13 13 13 12 12 11 10 10 10 10 10 10 10 10 10 11 11 11 11 12
17 16 15 15 14 14 14 14 15 14 12 10 8 9 9 8 8 9 9 9 9 8 8 8 8 9 10 10 11 11 12 12 12 13 13 13 12 12 12 12 12 12 13 13 14 14 14 13 13 12 12 13 13 12 12 12 13 12 12 12 12 12 12 12 12 12 12 12 12 11 11 10 10 10 10 10 10 9 9 10 10 11 11 11 12
16 16 16 16 15 15 15 15 15 13 11 9 7 8 8 8 8 9 9 9 9 9 8 8 8 9 10 11 11 11 12 12 13 14 14 13 13 12 12 12 12 13 13 13 14 14 14 14 13 12 12 12 11 11 10 10 11 11 11 12 12 12 11 11 11 11 11 10 10 10 9 9 9 9 9 9 9 9 9 9 10 11 11 10 11
16 16 16 16 16 16 16 16 14 12 10 8 7 7 7 8 9 9 9 9 9 9 8 8 9 10 10 10 11 11 11 12 12 13 13 13 12 12 12 12 12 12 13 13 13 13 13 13 13 13 12 12 11 10 10 10 10 11 11 11 11 11 11 11 10 10 10 9 9 8 8 8 8 8 8 8 8 9 8 9 11 10 9 9 10
15 15 15 15 16 16 17 16 14 12 9 7 7 6 7 9 9 9 9 9 9 9 8 9 10 11 10 10 10 10 10 10 11 12 13 12 12 13 12 12 12 12 12 12 12 12 12 12 12 13 13 13 12 12 12 12 12 12 11 12 11 11 11 11 10 10 9 9 8 8 7 7 7 7 8 8 8 9 9 10 11 9 8 9 10
14 14 14 15 15 16 17 16 14 12 9 7 6 7 8 9 9 9 9 9 9 9 10 11 11 11 10 9 9 9 9 10 10 11 12 12 12 12 12 12 11 11 12 12 11 11 12 12 12 13 13 13 13 14 14 14 14 14 13 13 13 12 12 12 12 12 11 11 10 10 9 8 8 8 8 9 9 10 10 11 10 7 8 9 10
13 13 13 14 15 16 16 15 14 12 10 8 7 8 10 10 9 10 10 10 10 10 10 11 11 10 9 9 9 9 9 9 9 10 11 11 11 11 11 12 11 11 12 12 12 11 11 12 12 12 13 13 13 14 14 15 15 15 15 15 14 14 14 14 14 14 13 13 13 13 13 12 12 11 11 11 11 10 10 10 9 7 8 9 9
12 12 12 14 15 15 15 15 14 12 11 9 8 10 11 10 10 10 11 10 10 10 10 10 10 9 8 8 8 8 8 8 9 9 10 11 10 10 10 11 11 11 12 12 11 11 11 11 11 11 11 12 12 13 14 14 15 14 14 14 14 14 14 13 13 13 13 13 13 14 14 14 14 13 12 11 11 10 9 9 8 7 8 9 9
11 12 12 13 14 15 15 15 14 13 11 10 10 11 11 10 10 10 11 10 10 10 9 9 8 8 7 7 7 8 8 8 9 8 9 10 10 10 10 10 10 11 11 11 11 11 10 10 10 9 9 10 11 12 12 13 13 13 13 13 12 12 12 12 12 12 12 12 12 12 13 13 13 12 11 10 9 9 8 7 7 7 8 8 8
10 11 10 11 14 15 15 15 14 13 12 10 11 11 11 10 10 10 10 10 10 10 9 8 8 7 7 8 8 8 8 8 9 8 8 9 9 9 9 9 9 10 10 10 10 10 10 10 9 8 7 8 9 10 11 11 12 12 12 12 11 11 11 11 11 11 11 11 11 11 12 11 11 10 9 8 7 7 7 7 7 7 7 7 7
10 10 9 10 12 15 15 15 14 14 13 11 11 11 11 11 10 10 10 10 10 10 10 9 8 7 7 8 9 8 8 8 9 8 8 8 8 8 9 9 8 8 9 9 10 10 10 10 9 9 8 7 7 8 9 10 10 11 11 11 10 10 10 9 10 10 10 11 10 10 10 10 9 8 7 6 6 6 6 6 6 6 6 7 8
10 10 9 9 11 14 15 15 15 15 14 12 12 12 11 11 11 10 10 11 11 11 11 10 9 8 8 8 8 9 8 8 8 7 7 7 7 8 8 8 8 8 8 8 9 9 9 10 10 10 9 8 7 7 8 8 9 10 10 10 10 9 9 9 8 9 9 9 9 8 8 8 7 6 6 5 5 5 5 5 5 6 7 8 10
10 9 9 9 11 13 15 15 15 15 14 13 12 12 11 11 11 10 11 12 12 11 11 10 9 8 8 7 7 8 8 7 7 6 6 6 6 6 7 7 8 8 8 8 8 8 8 9 9 9 9 8 8 8 7 8 9 9 9 8 8 8 8 8 7 8 8 8 8 8 7 7 7 6 5 5 5 5 5 5 6 7 9 10 10
10 10 9 10 11 12 14 14 15 15 15 14 13 13 12 12 12 11 12 13 12 11 10 9 9 8 7 6 6 7 7 7 6 6 6 6 5 5 5 6 8 8 8 7 7 7 8 9 9 9 8 8 8 8 7 7 8 8 8 7 6 6 7 7 7 7 7 7 8 8 7 7 7 7 6 7 7 7 7 7 8 9 10 11 11
11 11 10 10 11 12 13 14 14 16 16 15 14 14 13 12 12 12 13 13 12 11 10 9 8 7 6 6 6 5 6 7 7 7 7 6 5 5 5 5 6 7 7 7 7 7 7 8 8 8 9 8 7 7 6 6 7 7 7 6 6 5 6 6 6 7 7 7 7 7 8 8 8 7 7 9 9 9 9 10 10 11 11 12 13
13 11 10 10 11 11 12 13 14 15 16 15 14 14 13 12 12 12 12 13 12 11 10 9 8 7 6 6 6 5 5 6 6 7 7 7 6 6 6 5 5 6 7 7 7 7 7 7 7 7 8 8 7 7 6 6 6 7 6 6 5 5 5 6 6 7 7 7 6 6 7 8 8 8 9 10 11 11 11 11 12 12 13 14 16
13 12 11 11 11 12 12 13 14 15 16 16 15 14 13 13 12 12 12 12 11 10 9 8 8 7 6 6 6 6 6 6 6 7 7 7 7 7 6 5 4 5 5 6 6 6 6 6 6 6 7 7 6 6 7 6 6 6 6 6 5 5 5 6 7 7 7 6 5 5 6 7 7 8 10 11 11 12 12 13 13 14 15 17 18
14 13 12 11 11 12 12 13 14 15 16 16 15 15 14 13 13 13 13 12 11 10 9 8 7 6 6 6 6 6 6 6 6 7 7 7 7 8 7 6 5 4 5 5 6 6 6 5 5 6 6 5 5 6 6 6 5 5 5 5 5 5 5 6 7 7 7 6 5 5 5 6 7 9 10 11 12 12 13 14 15 16 17 18 18
15 14 12 11 11 11 12 13 14 15 16 16 15 15 15 14 14 14 13 12 12 11 10 9 7 6 5 5 5 6 6 6 6 6 6 7 7 7 7 6 6 5 4 4 5 6 6 5 4 5 5 5 5 6 6 5 4 4 5 5 4 4 4 5 6 6 6 6 5 5 6 6 7 8 10 11 12 13 14 15 17 18 18 19 19
17 15 14 13 13 13 13 15 15 15 16 16 16 16 16 15 15 15 14 13 13 12 11 10 8 6 5 5 5 5 5 6 6 6 6 7 7 7 7 6 5 4 4 4 4 5 6 6 5 4 5 6 6 6 6 5 4 3 3 3 4 4 4 4 5 5 5 5 5 5 6 6 6 8 10 12 14 15 16 17 19 19 19 19 18
18 17 16 15 14 14 14 16 16 16 17 17 16 16 16 15 14 14 14 14 13 12 12 12 10 8 6 5 5 5 5 5 6 6 6 6 6 6 6 6 5 4 4 4 4 5 6 6 5 4 4 5 6 5 5 5 4 4 3 2 3 4 4 4 4 5 4 4 4 4 5 5 6 8 10 13 15 16 18 19 20 19 19 18 17
20 19 18 16 15 15 15 16 16 16 17 17 15 14 13 13 12 13 13 13 12 12 12 12 11 9 7 6 6 6 5 5 6 6 6 5 5 5 6 5 5 5 4 4 4 4 5 5 5 5 4 4 5 5 5 5 5 5 4 3 2 3 3 3 4 4 3 3 3 3 4 4 6 9 12 15 17 18 19 20 20 19 18 17 15
21 20 19 17 16 15 16 16 17 17 16 16 15 13 12 11 11 11 12 13 12 11 11 12 12 11 9 7 7 7 6 6 6 6 6 5 5 5 5 5 4 4 4 4 4 4 5 5 5 5 4 3 4 5 5 5 5 5 4 4 3 3 2 3 3 3 4 4 4 3 3 4 6 10 13 17 18 20 20 20 19 18 16 15 14
22 20 19 18 17 16 16 17 17 16 16 15 14 14 13 12 12 12 13 14 13 12 12 13 14 12 10 8 9 9 7 6 6 6 6 5 5 5 5 4 4 3 3 4 4 5 6 5 5 5 4 4 5 4 4 4 5 5 4 5 4 3 3 2 3 3 4 4 4 3 3 4 7 11 15 18 20 21 20 19 18 16 15 13 12
23 21 19 18 17 16 16 17 17 16 16 16 15 14 14 14 14 14 16 16 16 15 14 14 14 12 10 9 10 9 8 7 7 6 6 6 5 5 5 4 4 4 4 4 5 6 6 5 5 5 5 5 5 5 4 4 4 4 4 4 3 2 3 2 2 2 3 3 3 3 3 5 9 13 17 19 20 20 20 19 17 15 14 12 11
25 22 20 19 17 16 16 17 17 16 16 16 16 16 16 16 16 17 18 19 18 17 15 14 13 11 9 10 10 10 9 8 7 6 6 6 5 6 6 5 4 4 5 5 5 5 4 4 4 5 5 4 5 5 5 4 4 4 3 2 2 2 2 2 1 1 1 1 1 2 2 5 9 14 17 19 20 20 19 17 16 14 13 11 10
26 23 21 19 18 17 16 17 17 17 17 16 17 17 16 16 17 17 18 19 18 15 13 12 12 11 10 10 11 10 9 7 6 6 6 6 6 6 6 5 5 4 4 5 5 4 4 4 4 4 4 4 4 5 5 4 4 3 2 2 2 3 2 2 1 1 1 0 1 2 3 6 10 15 18 19 19 18 17 16 15 13 12 11 10
25 23 22 21 20 19 17 17 17 17 17 17 17 18 17 16 16 16 17 18 16 14 12 11 12 12 11 11 11 9 8 6 5 5 5 5 6 6 6 5 5 4 4 4 5 5 4 4 4 4 4 4 4 4 5 5 4 3 2 3 4 4 3 3 2 1 1 1 2 3 4 7 12 16 18 18 17 17 16 14 13 12 10 9 9
25 24 23 22 21 20 18 17 17 18 18 17 17 18 17 16 16 16 17 18 16 15 14 13 13 13 12 12 11 9 7 6 5 5 5 5 5 6 6 6 5 4 4 4 4 4 4 4 3 4 4 4 4 3 4 4 4 3 2 3 4 4 4 4 3 3 3 2 3 4 5 9 14 17 18 17 16 15 14 13 12 10 9 8 7
25 25 23 23 22 22 20 19 18 18 18 18 17 18 17 16 16 17 17 17 17 16 16 15 15 14 12 12 11 9 8 7 6 5 4 5 5 6 6 6 6 5 4 4 4 4 4 4 3 4 4 3 3 2 2 3 3 3 2 3 3 3 3 3 3 3 3 4 5 5 7 11 15 17 17 16 15 14 13 12 10 9 8 7 6
24 25 24 23 23 23 22 20 18 18 18 18 17 18 18 17 16 17 17 17 17 17 17 16 15 14 13 12 11 10 9 8 7 5 5 5 5 6 6 6 6 5 5 4 3 3 3 4 3 3 3 3 3 2 2 2 2 2 2 2 2 2 2 2 2 3 4 5 6 7 9 11 14 16 16 16 15 13 11 10 8 7 6 6 6
24 25 25 25 24 24 23 22 20 19 19 18 18 18 19 18 16 16 17 17 17 18 18 17 15 14 13 12 12 10 9 9 8 6 5 5 5 5 5 6 5 5 4 4 3 3 3 3 3 3 3 3 2 2 2 2 2 2 2 2 1 1 2 3 2 2 4 5 6 8 10 12 14 15 15 15 14 12 9 8 6 5 5 5 6
Wind_Direction
130 134 133 133 134 135 135 135 133 131 131 131 132 132 132 129 127 126 125 122 119 118 121 124 128 128 125 121 117 114 111 111 107 102 99 101 107 111 111 117 130 135 141 157 171 178 184 198 205 192 184 188 180 169 166 172 165 161 163 154 150 145 135 122 111 104 96 88 85 81 77 77 80 81 85 89 86 82 82 83 82 83 81 79 84
132 133 131 133 135 132 131 131 130 130 131 131 131 131 131 130 129 126 123 119 119 124 129 131 127 123 119 116 113 111 109 103 93 84 86 95 96 97 93 92 100 102 107 115 118 127 133 126 127 129 125 126 124 118 124 135 139 140 144 145 143 140 131 122 116 112 106 94 89 85 80 79 81 84 87 89 90 87 84 85 83 82 79 77 82
137 135 133 133 135 131 127 128 129 132 133 133 133 134 134 133 131 126 124 125 127 130 130 127 120 116 111 108 105 103 99 90 81 79 88 95 95 94 93 95 99 101 103 106 108 112 117 114 112 113 116 122 117 111 114 121 127 131 132 134 136 131 122 117 115 113 109 100 95 90 82 81 83 84 87 90 93 92 88 85 83 82 78 77 82
141 139 137 136 138 136 131 133 135 138 138 138 138 137 136 134 131 129 129 130 128 128 125 120 111 103 98 97 93 89 85 80 76 83 93 97 98 98 99 102 104 104 104 104 105 107 110 112 114 115 115 122 117 114 119 122 126 128 126 128 128 124 118 113 111 110 109 105 100 94 84 81 84 81 84 89 93 95 92 88 86 82 79 79 81
143 142 142 140 140 142 141 141 141 143 143 139 138 136 135 134 133 131 129 126 121 119 117 111 100 91 87 87 81 78 77 76 79 89 99 101 102 103 104 105 104 105 104 103 104 104 107 109 111 114 114 117 118 118 123 126 129 129 128 131 129 122 118 112 112 114 113 111 104 95 86 81 82 80 82 88 93 96 95 90 86 81 79 79 79
144 144 144 141 141 143 142 141 142 142 139 136 136 136 137 137 134 129 123 117 112 110 112 108 96 87 83 82 75 75 77 77 84 95 102 103 103 104 105 105 106 106 105 103 101 100 101 101 101 109 113 116 121 121 121 125 129 130 129 133 129 120 117 115 115 117 116 113 105 95 87 81 79 80 81 86 90 93 92 88 85 80 78 77 78
145 146 145 142 139 140 139 138 138 137 135 136 137 139 140 137 130 123 118 115 112 113 117 111 97 88 85 84 78 79 84 83 88 98 102 102 103 102 104 105 106 105 102 98 96 95 92 90 94 113 118 117 120 117 115 119 126 129 126 128 126 120 121 122 120 117 116 113 104 95 87 82 80 81 82 85 89 90 90 87 83 79 76 76 78
147 148 147 144 140 137 137 136 136 136 137 139 141 143 140 133 127 124 125 121 118 121 122 111 94 86 89 88 84 87 92 92 92 97 100 103 105 103 105 105 101 98 98 94 91 89 87 88 96 117 118 111 113 113 114 117 122 124 120 120 119 119 123 123 121 118 115 109 103 94 87 86 87 87 88 89 91 90 88 84 80 78 76 77 77
150 151 149 148 146 141 141 140 140 141 141 143 145 145 140 136 134 135 137 130 126 128 121 104 92 90 95 90 87 96 101 101 99 98 100 103 107 107 106 103 99 96 94 90 88 88 91 93 96 109 115 112 114 117 117 114 113 114 114 117 118 119 121 121 121 117 112 106 101 94 88 92 94 94 94 93 91 87 84 80 78 76 75 74 74
153 153 151 152 151 147 146 146 145 144 144 147 149 148 144 143 142 145 148 138 131 127 116 101 100 100 98 93 93 103 108 108 107 104 102 102 106 110 109 105 103 100 95 89 88 91 94 94 95 107 117 117 117 116 112 108 106 109 112 114 118 121 122 122 122 116 110 104 100 95 93 96 97 98 98 94 91 87 83 78 76 75 73 71 69
154 154 154 155 154 152 151 150 149 148 149 151 152 150 148 148 149 156 155 137 131 124 112 106 109 107 102 100 101 107 112 115 113 108 104 103 106 113 116 113 109 104 99 91 91 94 95 98 101 110 115 111 111 111 109 106 106 109 110 113 119 122 123 123 120 114 107 102 98 96 96 97 97 97 96 93 90 86 82 78 75 74 71 67 64
155 156 157 159 157 156 155 154 154 155 156 154 154 153 153 155 161 165 152 136 131 122 112 115 116 110 107 104 105 111 118 119 117 112 107 106 109 113 115 113 108 103 98 92 93 92 91 98 101 104 106 107 110 110 108 106 108 110 112 115 119 120 121 120 115 110 104 100 98 97 97 97 97 94 92 90 87 84 82 79 76 71 67 63 59
156 158 160 161 160 159 159 160 160 162 160 157 156 157 160 165 168 156 142 133 123 113 112 116 115 110 108 102 105 116 121 120 119 116 112 111 109 110 109 108 107 100 94 92 94 88 83 87 89 90 95 104 107 104 103 105 109 111 112 114 115 116 117 116 112 107 104 102 100 99 99 98 95 91 89 87 86 84 82 79 73 67 63 59 55
157 159 161 162 162 163 164 163 163 164 160 157 159 162 166 165 155 143 133 126 110 107 113 114 113 112 108 102 108 116 120 120 120 117 115 113 108 107 108 111 109 100 94 93 95 90 84 84 87 92 95 98 99 99 102 105 107 108 108 110 113 116 116 114 110 107 105 103 100 98 97 96 93 90 87 86 84 83 80 76 71 65 62 57 54
158 160 162 163 164 166 165 164 163 162 159 159 162 159 158 151 142 133 124 118 107 107 113 115 113 110 105 103 110 115 117 120 121 118 116 114 112 112 114 115 111 105 98 96 101 97 92 93 95 99 99 98 102 104 105 105 105 106 107 109 112 115 115 112 108 106 105 103 101 98 97 95 93 89 86 83 82 81 79 75 69 65 61 55 54
160 163 164 166 167 168 165 163 161 158 159 158 155 149 146 144 135 126 121 115 109 109 113 115 112 107 103 104 112 118 121 121 119 119 119 117 118 118 115 112 110 107 100 101 109 106 101 99 98 99 101 104 106 107 106 106 106 106 107 108 112 114 113 110 106 105 104 104 102 101 99 96 91 86 83 83 83 82 79 74 69 65 62 56 55
163 165 167 167 167 167 164 162 159 156 156 151 145 143 142 142 135 129 125 117 112 115 117 116 112 106 103 106 114 121 122 120 116 117 121 120 121 120 114 110 109 105 99 107 116 112 106 103 101 101 105 106 105 106 107 107 106 107 108 110 113 113 112 109 106 105 106 107 106 103 99 94 90 85 84 84 85 83 78 72 68 65 61 56 57
163 165 166 165 165 165 164 162 158 152 147 144 144 143 142 142 139 133 127 120 118 120 119 115 110 105 104 105 109 113 111 112 112 115 121 121 119 117 115 113 109 103 99 109 119 117 110 108 108 107 107 105 105 108 108 107 108 109 110 113 114 114 113 109 107 107 109 110 108 103 98 94 91 88 86 86 86 82 75 71 70 67 62 58 62
163 165 165 163 163 162 162 160 154 147 143 144 146 143 142 143 139 134 127 124 122 122 120 115 109 104 103 101 102 105 105 105 107 114 121 121 118 115 115 112 107 102 100 109 120 119 112 108 106 106 106 104 104 106 108 110 110 110 111 113 115 115 113 111 110 110 111 111 108 105 101 98 95 90 88 87 85 80 76 75 73 68 65 65 70
164 165 163 161 160 159 160 157 150 146 144 145 144 141 141 140 136 133 128 126 123 120 119 117 112 108 106 103 102 104 106 105 107 114 119 121 119 116 115 113 110 105 101 107 117 119 115 109 105 105 105 104 103 104 108 110 110 109 111 113 114 112 111 110 111 112 113 112 110 109 107 105 100 96 93 91 87 82 80 79 75 69 68 72 78
164 164 161 160 157 157 159 156 150 148 146 144 142 143 139 135 135 134 132 128 124 123 122 120 117 114 111 109 106 104 105 106 109 114 117 119 117 117 117 117 115 110 104 106 113 118 118 114 109 107 103 101 103 105 109 112 113 115 117 118 115 112 111 110 111 111 112 112 113 113 113 112 108 104 99 95 91 87 83 81 77 70 67 75 83
163 162 160 158 157 157 158 155 151 150 148 142 139 142 139 137 139 136 134 130 127 128 128 126 124 118 115 113 110 107 106 107 109 112 113 114 115 117 118 118 117 114 110 110 113 117 119 116 112 107 102 100 100 102 108 116 120 123 123 120 117 115 114 113 112 112 112 114 115 116 116 116 114 111 107 104 100 95 89 85 79 70 67 75 81
162 161 160 159 157 158 158 156 153 153 150 143 138 141 144 146 143 135 132 130 129 131 131 132 130 123 119 115 111 108 106 106 107 109 110 112 115 118 119 119 118 116 115 115 116 118 118 117 114 111 106 104 102 101 107 116 122 124 123 121 118 117 116 116 116 116 118 119 119 119 118 117 115 115 114 111 109 104 98 90 81 75 78 81 79
157 160 162 161 158 159 160 158 156 155 152 145 142 144 147 146 140 135 133 133 129 127 130 132 131 125 121 117 114 111 108 108 109 109 110 113 116 117 117 116 114 115 117 117 118 119 119 118 116 113 108 104 104 102 104 109 113 117 118 117 116 116 115 115 115 114 113 112 111 109 108 107 110 117 117 113 110 106 101 95 88 85 89 87 81
156 159 163 162 161 162 162 160 158 157 153 149 148 148 147 143 139 136 134 133 127 123 126 129 129 127 124 123 120 118 115 115 115 114 114 115 117 117 115 112 110 112 114 117 119 119 120 120 118 115 111 106 103 102 102 103 105 107 108 109 110 111 112 110 108 106 102 99 95 92 89 85 89 99 106 107 106 104 103 102 101 100 96 87 79
155 158 162 164 165 165 163 161 159 158 156 154 153 152 149 145 143 139 135 133 127 124 126 129 131 130 130 129 126 124 122 122 122 121 119 118 118 119 117 113 110 109 112 117 120 121 122 121 121 119 116 112 108 107 105 104 104 104 105 106 108 108 107 105 104 102 99 95 91 88 85 82 82 85 91 97 101 104 107 107 106 103 91 81 74
153 157 162 167 168 168 166 162 160 160 159 156 155 155 151 148 145 142 139 136 130 129 131 132 133 133 132 130 127 126 125 125 124 124 123 121 122 122 121 117 113 111 112 115 119 121 121 119 120 120 120 117 114 111 110 108 107 107 107 107 108 107 106 105 104 102 99 97 94 91 88 85 85 85 87 92 96 100 103 102 97 91 82 74 69
156 159 161 167 170 171 168 163 161 162 160 157 157 157 153 149 146 145 146 143 137 136 137 137 135 134 133 130 128 128 128 125 121 122 123 123 123 123 124 120 114 111 111 112 115 116 116 116 115 116 119 121 119 114 113 113 112 112 110 109 109 108 107 106 105 102 99 98 96 92 88 86 84 84 86 88 91 95 96 92 85 79 72 66 63
160 161 161 167 171 171 170 167 165 164 163 159 160 161 155 151 148 148 149 147 143 141 141 138 135 136 136 133 132 133 131 127 123 124 126 126 127 128 128 127 120 115 112 111 112 112 113 113 112 110 109 115 119 119 119 118 118 116 113 113 112 110 108 106 104 100 97 94 91 89 86 84 83 83 84 86 90 91 88 83 77 71 65 59 55
167 167 166 169 171 171 171 171 170 168 165 161 162 164 159 154 152 151 149 146 143 141 141 138 136 138 136 133 133 134 134 129 125 126 130 132 132 135 136 135 130 124 119 115 112 111 112 113 114 112 106 106 113 121 125 124 121 118 116 117 115 112 109 106 103 99 95 91 87 84 83 83 83 84 86 89 90 87 82 76 71 67 62 56 52
176 171 170 170 169 171 175 176 175 173 168 163 165 167 164 161 159 154 147 143 141 140 140 139 138 138 136 135 133 133 135 134 130 129 132 134 135 136 136 136 133 130 127 122 118 116 115 116 116 115 112 110 110 117 127 128 124 121 120 121 118 115 111 106 102 98 93 89 87 86 86 85 84 84 87 89 86 80 76 71 67 62 58 57 57
180 175 175 170 166 171 177 178 178 176 171 166 167 171 171 167 164 157 149 145 144 144 143 141 141 141 141 139 137 136 137 139 137 134 135 134 133 132 132 133 133 131 129 126 124 125 123 120 118 117 116 114 112 113 121 128 128 126 125 122 120 116 111 107 102 97 92 87 86 88 88 85 80 78 79 80 77 71 68 64 60 58 59 63 68
185 185 182 172 168 172 177 179 179 178 174 169 170 175 176 173 168 161 154 151 149 149 148 146 145 148 148 143 143 143 139 141 142 138 140 140 135 131 133 134 131 127 127 128 128 129 124 117 117 117 115 112 111 111 115 127 133 132 130 127 124 117 109 105 100 93 89 85 84 84 82 79 75 72 73 74 73 69 67 64 64 66 70 75 80
192 192 185 175 173 174 177 179 178 178 176 172 173 179 179 177 173 165 160 158 157 157 154 151 152 154 153 148 149 152 145 143 142 140 143 145 141 139 140 135 125 120 122 128 133 132 123 115 113 116 116 116 116 115 116 127 136 138 136 132 127 117 107 101 94 86 85 87 84 78 75 75 74 73 74 73 72 73 73 74 77 80 84 87 88
194 193 188 183 179 177 179 180 179 178 177 175 176 181 182 181 178 170 166 166 167 167 161 156 159 160 156 154 156 159 152 146 144 144 147 147 146 144 141 133 120 114 118 128 135 131 122 116 113 114 117 123 127 124 121 126 133 138 137 132 126 117 107 98 90 83 84 88 86 78 73 73 73 74 75 75 75 79 82 83 87 90 93 93 91
194 193 193 191 184 180 181 181 181 178 177 178 180 183 184 184 182 177 174 174 176 176 171 164 162 163 161 161 163 163 156 149 148 149 150 151 149 147 142 134 125 121 123 126 131 128 121 117 114 112 113 120 129 129 126 127 133 138 137 131 125 116 105 95 87 83 83 85 86 81 73 69 69 72 77 80 82 85 88 91 95 97 97 96 95
196 196 197 195 189 183 181 183 183 179 179 182 184 186 187 186 186 185 181 181 182 181 181 174 166 166 166 166 165 160 157 153 153 152 154 157 156 152 146 144 145 145 138 126 125 126 123 117 109 107 110 118 134 140 135 135 143 147 142 132 123 114 103 92 85 85 83 82 85 84 75 71 73 78 84 89 91 93 96 99 102 102 100 99 98
199 199 200 197 194 190 184 185 186 182 182 184 185 189 191 191 189 189 186 184 187 187 187 182 174 172 172 174 169 160 157 156 155 155 160 167 167 162 154 152 158 159 149 130 128 132 129 120 110 109 116 126 138 140 137 143 159 162 152 141 125 109 98 90 88 87 84 81 83 84 81 79 80 88 96 99 101 102 105 107 106 104 103 102 100
202 201 202 198 196 195 189 189 190 186 186 187 189 192 195 197 194 193 189 186 189 189 188 188 184 181 180 183 181 169 162 158 157 158 167 177 177 170 165 161 165 164 148 138 144 145 137 132 128 120 116 123 129 131 134 149 179 188 174 151 123 102 91 91 92 85 81 82 82 84 87 87 88 98 106 107 108 109 110 110 108 107 105 104 101
204 203 204 202 198 197 194 191 192 190 189 191 193 195 199 202 201 198 193 189 191 189 188 191 190 187 187 192 195 185 172 162 160 162 171 184 180 171 169 167 168 167 152 148 156 151 144 143 140 127 115 121 129 137 140 151 178 191 192 174 118 94 84 86 82 71 71 81 83 88 93 92 97 109 113 114 115 114 112 111 110 109 108 106 103
206 204 204 204 201 201 198 194 194 193 192 192 195 199 202 207 208 204 198 195 194 190 190 193 193 194 192 193 204 200 183 172 168 167 171 182 181 171 169 169 166 165 155 147 155 154 151 154 146 134 122 125 140 149 149 152 164 170 175 171 126 92 72 58 56 49 39 56 71 82 93 100 109 117 119 120 120 116 113 113 113 113 111 109 106
208 207 204 204 204 205 204 198 198 196 194 195 196 200 206 212 214 211 206 204 199 194 194 195 196 198 194 195 209 208 194 185 180 173 169 176 183 177 172 171 164 163 154 140 147 154 155 159 152 140 137 147 159 159 155 155 148 145 153 153 141 114 72 23 21 35 30 28 37 50 82 109 118 123 125 124 121 118 117 117 117 116 114 111 107
210 210 207 205 204 206 207 203 201 198 197 199 199 201 206 212 213 211 210 208 205 199 199 201 199 197 194 197 209 210 201 195 190 179 172 175 186 184 176 173 164 156 146 134 144 154 156 157 149 141 145 153 160 157 150 148 134 129 141 142 141 133 95 34 4 23 29 16 6 23 66 110 124 128 128 125 123 122 122 122 121 119 116 111 105
210 211 209 208 206 206 209 208 204 200 199 201 203 204 206 211 212 210 208 206 205 203 203 205 201 196 193 197 207 208 202 200 196 186 177 175 183 187 179 171 156 141 137 139 149 156 155 152 146 141 142 148 151 141 128 130 127 130 145 145 144 131 99 83 30 6 11 2 351 10 61 112 128 131 129 127 126 126 127 126 124 122 118 113 106
211 212 211 211 209 208 211 211 208 205 203 201 203 207 208 211 212 210 208 205 202 202 203 203 200 196 195 197 204 205 200 200 198 191 184 177 179 184 179 169 155 141 139 143 149 154 154 151 145 137 134 142 143 127 118 125 132 133 144 148 139 98 76 86 69 331 322 351 354 26 74 121 134 133 131 130 131 131 130 128 126 124 120 114 108
210 212 214 215 213 211 212 212 209 208 207 203 203 207 209 213 213 212 211 208 205 202 200 201 200 200 202 203 205 203 198 198 196 191 187 179 176 178 174 168 160 146 141 146 150 161 168 160 151 140 138 146 144 131 127 128 129 125 117 109 96 73 53 37 27 296 268 56 99 93 105 132 138 135 133 133 135 134 132 130 128 126 121 117 111
208 210 214 216 214 213 213 213 210 209 210 208 204 206 209 212 212 211 211 212 210 206 203 203 201 202 204 205 206 202 196 197 192 189 187 180 175 174 171 165 159 151 150 157 160 168 175 170 157 146 144 151 148 145 143 134 125 115 95 87 80 72 63 45 40 64 85 91 111 115 130 143 142 137 135 137 138 137 135 133 130 127 122 117 111
207 208 212 215 214 212 213 214 211 209 211 212 209 207 208 211 211 209 209 209 207 205 207 204 199 201 202 203 204 200 197 199 196 193 188 180 178 177 171 165 162 161 160 165 170 172 172 170 163 153 152 153 148 148 149 138 130 119 96 89 84 78 73 60 54 65 74 97 129 135 147 149 143 139 140 141 140 140 139 135 132 129 124 117 108
207 208 211 214 214 213 213 215 212 210 211 213 212 211 210 211 211 208 207 208 204 201 207 206 199 202 202 200 203 200 199 205 205 203 196 186 186 184 176 172 170 165 164 169 175 177 175 171 167 162 158 153 146 145 146 141 136 130 107 89 81 77 74 70 79 97 103 125 140 148 155 152 145 143 144 145 143 142 141 138 135 130 121 109 92
206 208 209 212 214 214 214 216 214 211 211 212 213 213 213 213 212 209 205 206 204 200 205 208 204 202 201 199 202 202 204 210 212 212 207 196 190 186 181 180 174 164 167 173 172 176 176 169 164 157 151 150 150 143 137 136 135 136 125 105 93 84 77 79 102 126 132 137 140 148 157 156 150 148 148 147 146 145 143 139 133 121 106 87 64
208 209 209 211 213 214 215 216 217 214 212 212 212 214 216 216 215 211 206 205 205 202 203 208 208 206 202 199 202 206 208 213 215 216 213 203 193 187 183 183 175 165 170 180 178 174 173 168 158 146 138 138 140 136 133 130 123 137 137 122 116 108 95 79 75 116 135 139 143 152 159 158 154 152 151 150 149 147 142 136 126 112 93 68 46
Height
3179 3181 3182 3183 3184 3186 3187 3188 3189 3190 3191 3192 3193 3194 3195 3196 3198 3199 3200 3200 3201 3202 3203 3203 3204 3204 3205 3205 3205 3206 3206 3206 3206 3206 3206 3206 3205 3205 3205 3205 3205 3205 3206 3206 3206 3207 3207 3207 3207 3208 3208 3209 3209 3210 3210 3210 3211 3211 3211 3211 3212 3212 3212 3212 3213 3213 3213 3213 3213 3213 3213 3213 3213 3213 3212 3212 3212 3212 3212 3212 3212 3212 3212 3212 3212
3181 3182 3183 3184 3186 3187 3188 3189 3190 3191 3192 3194 3195 3196 3197 3198 3199 3200 3201 3202 3203 3203 3204 3204 3205 3205 3205 3206 3206 3206 3206 3206 3206 3206 3206 3206 3206 3206 3206 3206 3205 3206 3206 3206 3207 3207 3207 3207 3208 3208 3209 3209 3209 3210 3210 3210 3210 3211 3211 3212 3212 3212 3213 3213 3213 3213 3213 3214 3214 3214 3214 3214 3214 3214 3213 3213 3213 3214 3213 3213 3213 3213 3213 3213 3213
3183 3184 3185 3186 3187 3188 3189 3190 3191 3193 3194 3195 3197 3198 3199 3200 3201 3202 3203 3203 3204 3204 3205 3205 3206 3206 3206 3206 3206 3206 3206 3206 3206 3206 3206 3206 3206 3206 3206 3206 3206 3206 3206 3207 3207 3207 3208 3208 3208 3209 3209 3209 3210 3210 3210 3210 3211 3211 3211 3212 3212 3213 3213 3213 3213 3214 3214 3214 3215 3215 3215 3215 3215 3215 3214 3214 3215 3215 3215 3214 3214 3214 3214 3214 3214
3185 3187 3188 3188 3189 3191 3192 3193 3194 3195 3197 3198 3199 3200 3201 3202 3202 3203 3204 3204 3205 3205 3205 3206 3206 3206 3206 3207 3206 3206 3206 3206 3206 3206 3207 3207 3207 3207 3207 3207 3207 3207 3207 3207 3207 3208 3208 3209 3209 3209 3209 3210 3210 3211 3211 3211 3211 3211 3211 3212 3213 3213 3214 3214 3214 3214 3214 3215 3215 3215 3216 3216 3216 3216 3216 3216 3216 3216 3215 3215 3215 3216 3215 3215 3215
3186 3188 3190 3191 3192 3193 3194 3196 3197 3198 3199 3200 3200 3201 3202 3202 3203 3204 3205 3205 3205 3206 3206 3206 3207 3207 3207 3207 3207 3207 3206 3207 3207 3207 3207 3207 3208 3208 3208 3208 3208 3208 3207 3207 3208 3208 3209 3209 3209 3210 3210 3210 3210 3210 3211 3211 3211 3212 3212 3212 3213 3214 3214 3214 3214 3215 3215 3216 3216 3216 3217 3217 3217 3217 3217 3217 3217 3217 3216 3217 3217 3217 3217 3217 3217
3186 3188 3190 3191 3192 3194 3196 3197 3198 3199 3200 3200 3201 3202 3203 3203 3204 3205 3205 3206 3206 3206 3207 3207 3207 3208 3208 3208 3207 3207 3207 3207 3208 3208 3209 3209 3209 3209 3209 3209 3209 3209 3208 3208 3209 3209 3209 3209 3210 3210 3211 3211 3210 3210 3211 3211 3211 3212 3212 3212 3213 3213 3214 3214 3215 3216 3216 3216 3217 3217 3218 3218 3218 3218 3218 3218 3218 3218 3218 3218 3218 3218 3218 3218 3218
3187 3189 3190 3191 3192 3194 3195 3197 3198 3199 3200 3201 3202 3203 3204 3204 3205 3205 3206 3207 3207 3207 3208 3208 3208 3208 3208 3208 3208 3208 3208 3209 3209 3209 3210 3210 3210 3210 3210 3210 3210 3210 3210 3210 3210 3209 3209 3210 3210 3211 3211 3210 3210 3210 3211 3212 3212 3212 3212 3213 3213 3213 3214 3215 3216 3216 3217 3217 3218 3218 3219 3219 3219 3219 3219 3219 3219 3219 3219 3219 3219 3219 3219 3219 3219
3189 3190 3192 3192 3193 3193 3195 3197 3198 3199 3201 3202 3203 3204 3204 3205 3206 3206 3207 3208 3208 3208 3209 3209 3209 3209 3209 3209 3209 3209 3210 3210 3210 3211 3211 3211 3211 3211 3211 3211 3211 3211 3211 3211 3211 3210 3210 3210 3211 3211 3210 3211 3211 3212 3212 3212 3212 3212 3212 3212 3213 3213 3215 3216 3217 3217 3218 3218 3219 3219 3219 3220 3220 3220 3220 3220 3221 3221 3221 3221 3220 3220 3220 3220 3220
3190 3192 3193 3195 3195 3195 3197 3198 3200 3201 3202 3203 3204 3205 3205 3206 3207 3208 3208 3209 3209 3209 3210 3210 3210 3210 3210 3210 3210 3210 3211 3211 3211 3211 3212 3212 3211 3212 3212 3212 3212 3212 3212 3212 3212 3211 3211 3211 3211 3211 3211 3211 3212 3212 3213 3213 3213 3212 3212 3213 3214 3214 3216 3217 3218 3218 3219 3219 3220 3220 3220 3221 3221 3221 3221 3222 3222 3222 3222 3222 3222 3222 3222 3222 3221
3192 3193 3195 3196 3197 3198 3199 3200 3201 3202 3203 3204 3205 3206 3207 3207 3208 3208 3209 3209 3210 3210 3211 3211 3211 3211 3211 3211 3211 3211 3212 3212 3212 3212 3212 3212 3212 3212 3212 3213 3213 3213 3213 3213 3213 3213 3212 3212 3211 3211 3212 3212 3212 3213 3214 3214 3214 3213 3213 3214 3215 3216 3216 3218 3219 3219 3220 3220 3221 3221 3222 3222 3222 3222 3223 3223 3223 3223 3223 3223 3223 3223 3223 3223 3222
3193 3194 3196 3197 3198 3199 3200 3201 3202 3204 3205 3206 3206 3207 3208 3208 3209 3209 3210 3210 3211 3211 3211 3212 3212 3212 3212 3212 3212 3212 3213 3213 3213 3213 3213 3213 3213 3213 3213 3213 3214 3214 3214 3214 3214 3214 3213 3212 3211 3211 3212 3212 3213 3214 3215 3215 3215 3215 3215 3215 3216 3217 3218 3219 3220 3221 3221 3222 3222 3222 3223 3223 3224 3224 3224 3224 3224 3224 3225 3225 3225 3225 3224 3224 3223
3194 3195 3197 3198 3199 3200 3201 3202 3203 3205 3206 3206 3207 3208 3209 3209 3210 3210 3211 3211 3211 3212 3212 3213 3213 3213 3213 3213 3213 3214 3214 3214 3214 3214 3214 3214 3214 3214 3213 3214 3215 3215 3215 3215 3215 3215 3215 3214 3212 3212 3213 3214 3214 3215 3216 3216 3216 3217 3217 3217 3218 3218 3219 3220 3221 3222 3222 3223 3223 3224 3224 3225 3225 3225 3225 3226 3226 3226 3226 3226 3226 3226 3225 3225 3224
3195 3196 3198 3199 3200 3201 3202 3203 3205 3206 3207 3207 3208 3209 3210 3210 3211 3211 3211 3212 3213 3213 3213 3214 3214 3214 3214 3214 3214 3215 3215 3215 3215 3215 3215 3215 3214 3215 3215 3215 3217 3217 3216 3216 3216 3216 3217 3217 3216 3215 3216 3216 3215 3214 3216 3217 3217 3218 3218 3219 3220 3220 3221 3222 3223 3223 3224 3224 3225 3225 3226 3226 3227 3227 3227 3227 3227 3227 3227 3227 3227 3227 3227 3226 3225
3196 3197 3199 3200 3201 3202 3203 3204 3206 3207 3207 3208 3209 3210 3210 3211 3211 3212 3212 3213 3213 3214 3214 3214 3215 3215 3215 3215 3215 3215 3215 3215 3215 3216 3216 3216 3215 3216 3216 3217 3217 3218 3218 3218 3218 3218 3218 3219 3219 3218 3218 3218 3217 3216 3218 3219 3219 3219 3219 3221 3222 3222 3223 3224 3224 3225 3225 3226 3226 3227 3227 3227 3228 3228 3228 3228 3228 3229 3228 3228 3228 3228 3228 3227 3226
3197 3198 3199 3201 3202 3203 3204 3205 3206 3207 3208 3209 3209 3210 3211 3211 3212 3212 3213 3213 3214 3214 3215 3215 3215 3216 3216 3216 3216 3216 3216 3216 3216 3216 3217 3217 3217 3217 3218 3218 3218 3219 3219 3219 3219 3220 3220 3220 3220 3220 3219 3220 3220 3220 3220 3220 3220 3221 3221 3222 3223 3224 3224 3225 3226 3226 3227 3227 3228 3228 3228 3229 3229 3229 3229 3230 3230 3230 3230 3229 3229 3229 3229 3228 3228
3197 3199 3200 3202 3203 3204 3205 3206 3207 3207 3208 3209 3210 3211 3211 3212 3213 3213 3214 3214 3215 3215 3215 3216 3216 3216 3217 3217 3217 3217 3217 3217 3217 3217 3218 3218 3218 3219 3219 3220 3220 3220 3220 3221 3221 3221 3221 3221 3221 3221 3221 3221 3221 3221 3222 3222 3222 3222 3223 3224 3225 3225 3226 3226 3227 3227 3228 3228 3229 3229 3229 3230 3230 3230 3231 3231 3231 3231 3231 3230 3230 3230 3230 3229 3229
3198 3200 3201 3202 3204 3205 3206 3207 3207 3208 3209 3210 3211 3212 3212 3213 3213 3214 3214 3215 3215 3216 3216 3217 3217 3217 3217 3217 3218 3218 3218 3218 3218 3218 3219 3219 3219 3220 3220 3221 3221 3221 3222 3222 3222 3223 3223 3223 3223 3222 3222 3222 3222 3222 3223 3223 3224 3224 3225 3225 3226 3227 3227 3228 3228 3229 3229 3230 3230 3230 3230 3231 3231 3231 3231 3231 3232 3232 3232 3231 3231 3231 3231 3231 3230
3199 3200 3202 3203 3205 3206 3207 3208 3208 3209 3210 3211 3212 3213 3213 3214 3214 3215 3215 3216 3216 3217 3217 3218 3218 3218 3218 3218 3219 3219 3219 3219 3219 3219 3220 3220 3220 3221 3221 3222 3222 3223 3223 3223 3223 3224 3224 3224 3225 3224 3224 3223 3223 3224 3224 3225 3225 3226 3227 3227 3228 3228 3229 3229 3229 3230 3230 3230 3231 3231 3231 3232 3232 3232 3232 3232 3233 3233 3233 3233 3233 3232 3232 3232 3231
3198 3200 3201 3203 3205 3206 3207 3208 3209 3210 3211 3212 3213 3214 3214 3215 3215 3216 3216 3217 3217 3218 3218 3219 3219 3219 3219 3219 3220 3220 3220 3220 3220 3220 3221 3221 3221 3222 3223 3223 3224 3224 3224 3224 3224 3225 3225 3225 3225 3226 3226 3226 3225 3226 3226 3227 3227 3228 3228 3229 3229 3229 3230 3230 3230 3231 3231 3231 3232 3232 3232 3233 3233 3233 3233 3233 3233 3233 3233 3233 3233 3233 3233 3232 3232
3198 3200 3201 3203 3204 3206 3207 3209 3210 3211 3212 3213 3214 3214 3215 3215 3216 3216 3217 3217 3218 3218 3219 3219 3220 3220 3220 3221 3221 3221 3221 3221 3221 3221 3222 3222 3222 3223 3224 3224 3225 3225 3225 3226 3226 3227 3227 3226 3226 3227 3228 3228 3228 3228 3228 3229 3229 3229 3230 3231 3231 3231 3231 3231 3232 3232 3232 3232 3232 3233 3233 3233 3234 3234 3234 3234 3234 3234 3234 3234 3234 3234 3234 3233 3233
3198 3200 3201 3203 3204 3206 3207 3209 3210 3211 3212 3213 3214 3215 3216 3216 3216 3217 3217 3218 3218 3219 3220 3221 3221 3221 3222 3222 3222 3223 3223 3223 3223 3223 3223 3223 3224 3224 3225 3226 3226 3226 3227 3227 3228 3228 3229 3229 3228 3229 3229 3229 3229 3229 3230 3230 3230 3231 3232 3232 3232 3232 3233 3233 3233 3233 3233 3233 3234 3234 3234 3234 3234 3235 3235 3235 3235 3235 3235 3235 3235 3235 3235 3234 3234
3198 3200 3201 3203 3204 3206 3208 3209 3210 3212 3213 3214 3215 3216 3216 3217 3217 3218 3218 3219 3219 3220 3221 3222 3222 3222 3223 3223 3224 3224 3224 3224 3224 3224 3224 3225 3225 3226 3226 3227 3227 3227 3228 3229 3229 3230 3230 3230 3230 3230 3230 3231 3231 3231 3231 3231 3232 3233 3233 3233 3233 3234 3234 3234 3234 3234 3235 3235 3235 3235 3235 3235 3235 3235 3235 3235 3236 3236 3236 3236 3236 3235 3235 3235 3234
3199 3201 3202 3203 3205 3206 3208 3209 3211 3212 3213 3214 3215 3216 3217 3217 3218 3219 3219 3220 3220 3221 3222 3223 3223 3224 3224 3225 3225 3225 3226 3226 3226 3226 3226 3227 3227 3227 3228 3228 3229 3229 3229 3230 3230 3231 3231 3231 3232 3232 3232 3232 3232 3232 3232 3233 3233 3234 3234 3234 3234 3235 3235 3235 3235 3235 3235 3235 3236 3236 3236 3236 3236 3236 3236 3236 3236 3236 3236 3236 3236 3236 3236 3236 3235
3200 3201 3203 3204 3205 3207 3208 3210 3211 3213 3214 3215 3215 3216 3217 3218 3219 3219 3220 3221 3221 3222 3223 3224 3224 3225 3225 3226 3226 3227 3227 3228 3228 3228 3228 3228 3229 3229 3229 3229 3230 3230 3231 3231 3232 3232 3233 3233 3233 3233 3234 3234 3234 3234 3234 3234 3235 3235 3235 3235 3235 3236 3236 3236 3236 3236 3236 3236 3236 3237 3237 3237 3237 3237 3237 3237 3237 3237 3237 3237 3237 3237 3237 3236 3236
3201 3202 3203 3205 3206 3207 3209 3210 3212 3213 3214 3215 3216 3217 3218 3219 3220 3220 3221 3222 3222 3223 3224 3225 3226 3226 3227 3227 3228 3228 3228 3229 3229 3229 3229 3230 3230 3230 3230 3231 3231 3232 3232 3232 3233 3234 3234 3234 3234 3235 3235 3235 3236 3236 3236 3236 3236 3236 3236 3236 3237 3237 3237 3237 3237 3237 3237 3238 3238 3238 3238 3238 3238 3238 3238 3238 3238 3237 3237 3237 3237 3238 3238 3237 3237
3202 3203 3204 3205 3207 3208 3209 3211 3212 3213 3214 3215 3217 3218 3219 3219 3220 3221 3222 3223 3223 3224 3225 3226 3227 3227 3228 3228 3229 3229 3230 3230 3230 3231 3231 3231 3231 3232 3232 3232 3233 3233 3233 3234 3234 3235 3235 3235 3236 3236 3237 3237 3237 3237 3237 3237 3237 3238 3238 3238 3238 3238 3239 3239 3239 3239 3239 3239 3239 3239 3239 3239 3239 3239 3239 3238 3238 3238 3238 3238 3238 3238 3238 3238 3238
3202 3203 3205 3206 3207 3208 3210 3211 3213 3214 3215 3216 3217 3218 3219 3220 3221 3222 3223 3224 3224 3225 3226 3227 3228 3229 3229 3230 3230 3230 3230 3231 3232 3232 3232 3232 3233 3233 3233 3234 3234 3234 3235 3235 3236 3236 3236 3237 3237 3238 3238 3238 3239 3239 3239 3239 3239 3239 3240 3240 3240 3240 3240 3240 3240 3240 3240 3240 3240 3240 3240 3240 3240 3240 3240 3239 3239 3239 3239 3239 3239 3239 3239 3239 3239
3203 3204 3205 3206 3208 3209 3210 3211 3213 3215 3216 3217 3218 3219 3220 3221 3222 3223 3224 3225 3225 3226 3227 3228 3229 3230 3230 3231 3231 3231 3231 3232 3232 3233 3233 3234 3234 3234 3235 3235 3235 3236 3236 3236 3237 3237 3238 3238 3239 3239 3239 3240 3240 3240 3240 3241 3241 3241 3241 3241 3241 3242 3242 3242 3242 3242 3242 3242 3242 3242 3241 3241 3241 3241 3241 3241 3241 3240 3240 3240 3240 3240 3240 3240 3240
3204 3205 3206 3207 3208 3209 3211 3212 3214 3215 3217 3217 3218 3220 3221 3222 3223 3224 3225 3226 3226 3227 3228 3229 3230 3231 3231 3232 3232 3232 3232 3233 3233 3234 3234 3235 3235 3235 3236 3236 3237 3237 3237 3238 3238 3239 3239 3240 3240 3240 3241 3241 3242 3242 3242 3242 3243 3243 3243 3243 3243 3243 3243 3243 3243 3244 3244 3243 3243 3243 3242 3242 3242 3242 3242 3242 3241 3241 3241 3241 3241 3241 3241 3241 3241
3205 3206 3207 3208 3209 3210 3211 3213 3214 3216 3217 3218 3219 3221 3222 3223 3224 3225 3226 3226 3227 3228 3229 3230 3231 3231 3232 3232 3232 3233 3233 3233 3234 3234 3235 3236 3236 3236 3237 3237 3238 3238 3238 3239 3239 3240 3240 3241 3241 3242 3242 3242 3243 3244 3244 3244 3244 3244 3244 3244 3245 3244 3244 3245 3245 3245 3245 3244 3244 3244 3244 3243 3243 3243 3243 3242 3242 3242 3242 3242 3242 3242 3242 3242 3241
3205 3206 3207 3208 3209 3211 3212 3213 3215 3216 3218 3219 3220 3221 3222 3223 3224 3225 3226 3227 3228 3229 3230 3231 3231 3232 3233 3233 3233 3233 3234 3234 3235 3235 3236 3236 3237 3237 3238 3238 3238 3239 3239 3240 3240 3241 3241 3242 3243 3243 3243 3244 3244 3245 3245 3245 3246 3246 3246 3246 3246 3246 3246 3246 3246 3246 3246 3246 3245 3245 3245 3244 3244 3244 3243 3243 3243 3243 3243 3243 3243 3243 3242 3242 3242
3206 3207 3208 3208 3210 3211 3212 3214 3215 3217 3218 3219 3221 3222 3223 3224 3225 3226 3227 3228 3229 3230 3231 3232 3232 3233 3233 3234 3234 3234 3234 3235 3236 3236 3237 3237 3237 3238 3238 3239 3239 3240 3240 3241 3241 3242 3242 3243 3244 3244 3244 3245 3245 3246 3246 3247 3247 3247 3247 3247 3247 3247 3247 3247 3247 3247 3247 3247 3246 3246 3246 3245 3245 3244 3244 3243 3244 3244 3244 3244 3243 3243 3243 3243 3243
3206 3207 3208 3209 3210 3211 3213 3214 3216 3217 3218 3220 3221 3222 3223 3225 3226 3227 3228 3229 3230 3231 3232 3233 3233 3233 3234 3234 3234 3234 3235 3235 3236 3237 3237 3237 3238 3238 3239 3239 3240 3240 3241 3241 3242 3242 3243 3244 3244 3245 3245 3245 3246 3246 3247 3247 3248 3248 3248 3248 3248 3248 3248 3248 3248 3248 3248 3248 3247 3247 3247 3246 3246 3245 3245 3245 3245 3244 3244 3244 3244 3244 3244 3244 3244
3206 3207 3209 3209 3210 3211 3213 3214 3216 3217 3219 3220 3221 3223 3224 3225 3226 3227 3228 3229 3230 3232 3233 3233 3234 3234 3234 3234 3235 3235 3235 3236 3236 3237 3238 3238 3239 3239 3240 3240 3241 3241 3242 3242 3243 3243 3244 3245 3245 3245 3246 3246 3247 3247 3247 3248 3249 3249 3249 3249 3249 3249 3249 3249 3249 3249 3249 3248 3248 3248 3248 3247 3247 3246 3246 3246 3246 3245 3245 3245 3245 3245 3245 3245 3245
3206 3207 3209 3210 3210 3212 3213 3215 3216 3217 3219 3220 3222 3223 3224 3225 3226 3228 3229 3230 3231 3232 3233 3234 3235 3235 3235 3235 3235 3236 3236 3236 3237 3237 3238 3239 3239 3240 3240 3241 3241 3242 3242 3243 3243 3244 3244 3245 3246 3246 3247 3247 3247 3248 3248 3249 3249 3249 3249 3249 3250 3250 3250 3250 3250 3250 3250 3249 3249 3249 3249 3248 3248 3247 3247 3247 3247 3247 3246 3246 3246 3246 3246 3247 3247
3206 3207 3209 3210 3211 3212 3213 3215 3216 3217 3219 3221 3222 3223 3225 3226 3227 3228 3229 3230 3231 3232 3233 3234 3235 3235 3236 3236 3236 3236 3236 3237 3237 3238 3239 3240 3240 3241 3241 3242 3242 3242 3243 3243 3244 3244 3245 3246 3246 3247 3247 3247 3248 3248 3249 3249 3250 3250 3250 3250 3250 3250 3250 3250 3250 3250 3250 3250 3250 3250 3250 3249 3249 3248 3248 3248 3248 3248 3248 3248 3248 3248 3248 3248 3249
3206 3207 3209 3210 3211 3212 3213 3214 3216 3217 3219 3221 3222 3224 3225 3226 3227 3228 3229 3230 3231 3232 3233 3234 3235 3236 3236 3236 3237 3237 3237 3238 3238 3239 3239 3240 3241 3241 3242 3242 3243 3243 3243 3244 3244 3245 3245 3246 3247 3247 3248 3248 3249 3249 3249 3250 3250 3251 3251 3251 3251 3251 3251 3251 3251 3251 3251 3251 3251 3251 3250 3250 3250 3250 3249 3249 3249 3249 3249 3249 3249 3250 3250 3250 3251
3205 3207 3208 3210 3211 3212 3213 3215 3216 3217 3219 3221 3222 3224 3225 3226 3227 3228 3229 3230 3231 3232 3233 3234 3235 3236 3236 3237 3237 3237 3238 3238 3239 3239 3240 3240 3241 3242 3242 3243 3243 3244 3244 3245 3245 3245 3246 3246 3247 3248 3248 3249 3249 3250 3250 3251 3251 3252 3252 3252 3252 3252 3252 3252 3252 3252 3252 3252 3252 3252 3251 3251 3251 3251 3250 3250 3250 3250 3250 3251 3251 3251 3252 3252 3252
3205 3206 3208 3209 3210 3212 3213 3214 3215 3217 3218 3220 3222 3223 3225 3226 3227 3228 3229 3230 3231 3232 3233 3234 3235 3236 3236 3237 3238 3238 3238 3239 3239 3239 3240 3241 3241 3242 3243 3243 3244 3244 3245 3245 3246 3246 3246 3247 3248 3248 3249 3249 3250 3250 3251 3251 3252 3252 3253 3253 3253 3253 3253 3253 3253 3253 3253 3253 3253 3252 3252 3252 3252 3252 3251 3251 3251 3252 3252 3252 3253 3253 3254 3254 3254
3204 3205 3207 3208 3210 3211 3212 3214 3215 3216 3217 3219 3221 3223 3224 3226 3227 3228 3229 3230 3231 3232 3233 3234 3235 3236 3236 3237 3238 3238 3239 3239 3240 3240 3241 3241 3242 3242 3243 3243 3244 3245 3245 3246 3246 3246 3247 3247 3248 3248 3249 3250 3250 3251 3251 3252 3253 3253 3253 3254 3254 3254 3254 3254 3254 3254 3254 3254 3254 3253 3253 3253 3253 3253 3252 3252 3252 3253 3253 3254 3254 3255 3255 3256 3256
3203 3204 3206 3207 3209 3211 3212 3214 3215 3216 3217 3219 3221 3223 3224 3226 3228 3229 3230 3231 3232 3233 3234 3235 3235 3236 3237 3237 3238 3239 3239 3240 3240 3240 3241 3242 3242 3243 3243 3244 3244 3245 3246 3246 3246 3247 3247 3248 3248 3249 3249 3250 3251 3251 3252 3253 3253 3254 3254 3254 3254 3254 3254 3254 3255 3255 3255 3255 3254 3254 3254 3254 3254 3254 3254 3254 3254 3254 3255 3255 3256 3257 3257 3257 3257
3202 3203 3205 3207 3209 3210 3212 3213 3214 3216 3217 3219 3220 3222 3224 3226 3228 3229 3231 3231 3232 3233 3234 3235 3236 3236 3237 3238 3238 3239 3240 3240 3240 3241 3241 3242 3242 3243 3243 3244 3244 3245 3246 3246 3247 3247 3248 3248 3249 3249 3249 3250 3251 3252 3253 3253 3254 3255 3255 3255 3255 3255 3255 3255 3255 3255 3255 3255 3255 3255 3255 3255 3255 3255 3255 3255 3255 3256 3256 3257 3258 3258 3258 3258 3258
3201 3203 3205 3206 3208 3209 3211 3212 3214 3215 3217 3218 3220 3222 3224 3226 3227 3229 3230 3231 3232 3233 3234 3234 3235 3236 3237 3238 3239 3240 3240 3240 3241 3241 3242 3242 3243 3243 3244 3244 3245 3246 3246 3246 3247 3248 3248 3249 3249 3249 3250 3251 3252 3252 3253 3254 3254 3255 3255 3256 3256 3256 3256 3256 3256 3256 3256 3256 3256 3256 3256 3256 3256 3256 3256 3257 3257 3257 3258 3258 3259 3259 3259 3259 3259
3200 3202 3204 3206 3207 3209 3211 3212 3213 3215 3216 3218 3220 3221 3223 3225 3226 3228 3229 3230 3231 3232 3233 3234 3235 3236 3237 3238 3240 3240 3241 3241 3241 3242 3242 3243 3243 3244 3244 3245 3246 3246 3247 3247 3248 3248 3249 3249 3249 3250 3250 3251 3252 3253 3253 3254 3254 3255 3256 3256 3256 3256 3256 3257 3256 3256 3256 3256 3256 3257 3257 3257 3257 3258 3258 3258 3259 3259 3259 3259 3260 3260 3260 3260 3260
3199 3201 3203 3205 3207 3209 3210 3212 3213 3214 3216 3217 3219 3221 3222 3224 3225 3226 3227 3228 3229 3231 3232 3234 3235 3237 3238 3239 3240 3241 3241 3242 3242 3242 3243 3243 3244 3245 3245 3246 3246 3247 3247 3248 3248 3249 3249 3249 3250 3250 3251 3252 3252 3253 3253 3254 3255 3256 3256 3256 3256 3257 3257 3257 3257 3257 3257 3257 3257 3257 3258 3258 3259 3259 3260 3260 3260 3261 3261 3261 3261 3261 3261 3261 3261
3198 3200 3202 3204 3206 3208 3210 3211 3213 3214 3215 3217 3218 3220 3221 3223 3224 3226 3227 3229 3230 3231 3233 3234 3236 3237 3238 3239 3240 3241 3241 3242 3242 3243 3243 3244 3244 3245 3245 3246 3247 3247 3248 3248 3249 3249 3250 3250 3251 3251 3252 3253 3253 3253 3254 3255 3256 3256 3257 3257 3257 3257 3257 3258 3258 3258 3258 3258 3258 3258 3259 3259 3260 3261 3261 3262 3262 3262 3262 3262 3262 3262 3262 3262 3262
3197 3200 3201 3203 3205 3207 3209 3211 3212 3213 3215 3216 3218 3219 3220 3222 3224 3226 3228 3229 3231 3232 3233 3235 3236 3237 3238 3239 3240 3241 3241 3241 3242 3243 3244 3244 3245 3245 3246 3246 3247 3248 3248 3249 3249 3250 3250 3251 3251 3252 3253 3253 3254 3254 3254 3255 3256 3256 3257 3257 3257 3258 3258 3258 3258 3258 3258 3258 3259 3259 3260 3260 3261 3262 3263 3264 3264 3264 3264 3264 3264 3263 3263 3263 3263
3197 3199 3200 3202 3204 3206 3208 3210 3211 3213 3214 3215 3217 3218 3220 3222 3223 3225 3227 3229 3230 3232 3233 3234 3235 3237 3237 3239 3240 3240 3241 3241 3242 3243 3244 3244 3245 3246 3246 3247 3248 3248 3249 3249 3250 3250 3251 3251 3252 3253 3253 3254 3254 3255 3255 3256 3256 3257 3257 3257 3258 3258 3258 3258 3258 3259 3259 3259 3259 3260 3260 3261 3262 3263 3264 3265 3265 3265 3265 3265 3265 3265 3264 3264 3264
3196 3197 3199 3201 3203 3205 3207 3208 3210 3212 3213 3214 3216 3218 3219 3221 3223 3224 3226 3228 3229 3231 3232 3233 3235 3236 3237 3238 3239 3240 3241 3241 3242 3243 3244 3245 3245 3246 3247 3248 3248 3249 3249 3250 3250 3251 3251 3252 3252 3253 3253 3254 3254 3255 3256 3256 3257 3257 3257 3258 3258 3258 3259 3258 3258 3259 3259 3259 3260 3261 3261 3262 3263 3264 3265 3266 3266 3267 3267 3267 3266 3266 3266 3266 3265
3194 3196 3198 3200 3202 3204 3205 3207 3209 3211 3212 3214 3215 3217 3219 3220 3222 3223 3226 3228 3229 3230 3231 3233 3234 3235 3237 3238 3239 3240 3241 3242 3243 3243 3244 3245 3246 3247 3248 3248 3249 3249 3250 3250 3251 3251 3252 3252 3253 3254 3254 3254 3255 3255 3256 3257 3257 3257 3258 3258 3259 3259 3259 3259 3259 3259 3259 3260 3261 3261 3262 3263 3264 3265 3266 3267 3267 3268 3268 3268 3268 3268 3267 3267 3267
3193 3195 3197 3198 3200 3202 3204 3206 3208 3210 3211 3213 3214 3216 3218 3219 3221 3223 3225 3227 3228 3229 3230 3232 3234 3235 3236 3238 3239 3240 3241 3242 3243 3244 3245 3246 3247 3248 3248 3249 3249 3250 3250 3251 3251 3252 3252 3253 3254 3254 3255 3255 3255 3256 3256 3257 3257 3258 3258 3258 3259 3259 3259 3260 3260 3260 3260 3261 3261 3262 3263 3265 3266 3267 3267 3268 3269 3269 3269 3269 3269 3269 3269 3268 3268